STARLINK-3947 (52607 NORAD) Tracking and Keplerian Element Data
This shows tracking and keplerian element data for the satellite.
Feedback or suggestion? Click here.
Element | Value |
Catalog | 52607 |
Name | STARLINK-3947 |
Epoch Orbit | 130 |
Epoch Day | 167.08334491 |
Epoch Year | 2022 |
RAAN | 282.7055 |
Inclination | 53.2173 |
Eccentricity | 0.00012 |
Argument of Perigee | 63.3563 |
Mean Anonmoly | 8.5402 |
Mean Motion | 15.36739422 |
Decay Rate | -0.00841475 |
L1 | 1 52607U 22052K 22167.08334491 -.00841475 00000+0 -25007-1 0 9996 |
L2 | 2 52607 53.2173 282.7055 0001200 63.3563 8.5402 15.36739422 1306 |
Live tracking and technical data element details for STARLINK-3947 (NORAD 52607). STARLINK-3947 can be tracked NOW for your location showing map with azimuth and elevation plus other details from your city location.
Track the satellite on the map from your city or location and see movement details for azimuth, elevation, latitude, longitude, range, height, and movement on the map or in text.
IsCatalogInMostPopularTable: catalog: 52607, numindb: 1
Update: records affected: 1
GetName: 52607 STARLINK-3947
Hit Count: updated at: Sat, 25 Jun 2022 04:53:21 GMT